Tracking 31027 objects as of 19-Jul-2025
HD Live streaming from Space Station
objects crossing your sky now

THORAD AGENA D DEB

Track THORAD AGENA D DEB now!
10-day predictions


NORAD ID: 4187
Int'l Code: 1969-082BA
Perigee: 527.6 km
Apogee: 543.3 km
Inclination: 70.0 °
Period: 95.2 minutes
Semi major axis: 6906 km
RCS: 0.0694 m2 (small)
Launch date: September 30, 1969
Source: United States (US)
Launch site: AIR FORCE WESTERN TEST RANGE (AFWTR)

Note: This is SATELLITE DEBRIS
Your satellite tracking list
EKRAN 2 DEB
Track 1 satellite(s)




NASA's NSSDC Master Catalog

Two Line Element Set (TLE):
1 04187U 69082BA  25199.47240072  .00024902  00000-0  14229-2 0  9994
2 04187  69.9546 238.1267 0011333 211.5234 148.5255 15.12587177939453
Source of the keplerian elements: AFSPC